EW7425 Weather Reports


Display with metric or nautical units.
time (UTC)temp
F
wind
direction
speed
MPH
gust
MPH
rain 1hr
in
rain 24hr
in
rain mn
in
humidity
%
barometer
mb
20260504222003 60 253 5.0 13.0 0.00 0.00 0.00 57 1005.1
20260504221503 60 242 6.0 13.0 0.00 0.00 0.00 57 1005.2
20260504221003 60 237 7.0 12.0 0.00 0.00 0.00 56 1005.1
20260504220503 60 240 7.0 16.0 0.00 0.00 0.00 57 1005.3
20260504220024 61 241 9.0 16.0 0.00 0.00 0.00 56 1005.3
20260504215524 60 246 9.0 20.0 0.00 0.00 0.00 56 1005.3
20260504215003 60 258 7.0 17.0 0.00 0.00 0.00 57 1005.2
20260504214503 61 252 9.0 19.0 0.00 0.00 0.00 56 1005.1
20260504214003 61 249 10.0 19.0 0.00 0.00 0.00 55 1004.9
20260504213503 61 248 10.0 20.0 0.00 0.00 0.00 55 1004.9
20260504213003 61 249 11.0 20.0 0.00 0.00 0.00 55 1004.9
20260504212503 61 250 11.0 20.0 0.00 0.00 0.00 55 1004.8
20260504212003 61 247 11.0 20.0 0.00 0.00 0.00 54 1004.9
20260504211503 62 250 10.0 19.0 0.00 0.00 0.00 53 1004.7
20260504211003 62 251 10.0 19.0 0.00 0.00 0.00 54 1004.7
20260504210503 63 248 9.0 19.0 0.00 0.00 0.00 55 1004.7
20260504210004 62 244 8.0 19.0 0.00 0.00 0.00 55 1004.6
20260504205503 62 245 9.0 19.0 0.00 0.00 0.00 57 1004.7
20260504205024 61 243 10.0 20.0 0.00 0.00 0.00 56 1004.6
20260504204503 62 247 10.0 20.0 0.00 0.00 0.00 55 1004.6
20260504204003 62 248 11.0 23.0 0.00 0.00 0.00 56 1004.5
20260504203524 61 249 12.0 23.0 0.00 0.00 0.00 56 1004.5
20260504203003 61 252 9.0 20.0 0.00 0.00 0.00 56 1004.3
20260504202503 62 251 10.0 28.0 0.00 0.00 0.00 57 1004.4
20260504202003 61 250 12.0 28.0 0.00 0.00 0.00 57 1004.5
20260504201503 61 245 10.0 20.0 0.00 0.00 0.00 58 1004.6
20260504201003 61 247 11.0 19.0 0.00 0.00 0.00 59 1004.5
20260504200503 60 245 10.0 19.0 0.00 0.00 0.00 60 1004.4
20260504200024 60 236 8.0 14.0 0.00 0.01 0.00 61 1004.4
20260504195503 60 229 8.0 15.0 0.00 0.01 0.00 60 1004.3
20260504195003 60 231 9.0 15.0 0.00 0.01 0.00 60 1004.3
20260504194503 60 239 9.0 18.0 0.00 0.02 0.00 60 1004.4
20260504194003 60 239 10.0 18.0 0.00 0.02 0.00 60 1004.4
20260504193503 60 238 11.0 19.0 0.00 0.02 0.00 60 1004.4
20260504193003 60 240 12.0 23.0 0.00 0.02 0.00 60 1004.4
20260504192503 61 237 12.0 23.0 0.00 0.02 0.00 59 1004.4
20260504192003 61 232 11.0 19.0 0.00 0.02 0.00 60 1004.4
20260504191503 61 237 10.0 19.0 0.00 0.03 0.00 59 1004.5
20260504191024 61 239 9.0 19.0 0.00 0.03 0.00 60 1004.5
20260504190504 60 234 10.0 20.0 0.00 0.03 0.00 63 1004.5
20260504190003 58 233 11.0 23.0 0.00 0.03 0.00 62 1004.5
20260504185503 58 233 12.0 25.0 0.00 0.04 0.00 63 1004.5
20260504185003 58 233 13.0 25.0 0.00 0.04 0.00 62 1004.6
20260504184503 58 233 12.0 23.0 0.00 0.04 0.00 61 1004.6
20260504184003 58 233 11.0 25.0 0.00 0.05 0.00 61 1004.8
20260504183503 58 235 11.0 25.0 0.00 0.05 0.00 63 1004.7
20260504183003 58 232 13.0 26.0 0.00 0.05 0.00 61 1004.8
20260504182503 59 233 13.0 26.0 0.00 0.06 0.00 60 1004.8
20260504182003 59 238 11.0 20.0 0.00 0.06 0.00 62 1004.8
20260504181503 58 237 10.0 21.0 0.00 0.07 0.00 63 1004.9
20260504181003 58 235 10.0 21.0 0.00 0.07 0.00 62 1005.0
20260504180503 57 232 7.0 20.0 0.00 0.07 0.00 63 1005.0
20260504180003 56 228 6.0 12.0 0.00 0.08 0.00 64 1005.1
20260504175503 56 231 8.0 18.0 0.00 0.08 0.00 66 1005.2
20260504175003 56 234 11.0 20.0 0.00 0.09 0.00 64 1005.3
20260504174503 55 236 10.0 20.0 0.00 0.09 0.00 64 1005.4
20260504174003 55 236 9.0 17.0 0.00 0.09 0.00 64 1005.5
20260504173503 55 237 10.0 18.0 0.00 0.10 0.00 63 1005.2
20260504173003 56 233 8.0 18.0 0.00 0.10 0.00 61 1005.2
20260504172524 56 227 6.0 13.0 0.00 0.11 0.00 62 1005.1
20260504172024 56 229 7.0 14.0 0.00 0.11 0.00 59 1005.0
20260504171503 56 228 6.0 14.0 0.00 0.12 0.00 60 1005.1
20260504171024 56 210 5.0 12.0 0.00 0.12 0.00 60 1005.0
20260504170503 56 204 6.0 12.0 0.00 0.13 0.00 59 1004.9
20260504151003 57 242 7.0 16.0 0.00 0.28 0.00 53 1004.9
20260504150503 57 239 7.0 16.0 0.00 0.28 0.00 56 1005.3
20260504141003 54 241 11.0 19.0 0.00 0.33 0.00 52 1006.1
20260504140503 55 234 9.0 17.0 0.00 0.33 0.00 52 1006.1
20260504130503 53 245 8.0 16.0 0.00 0.37 0.00 53 1006.6
20260504110503 40 245 6.0 11.0 0.00 0.48 0.00 74 1007.1
20260504100503 35 246 4.0 8.0 0.00 0.53 0.00 80 1006.6
20260504082003 36 252 5.0 10.0 0.00 0.55 0.00 77 1006.0
20260504081503 36 252 4.0 8.0 0.00 0.55 0.00 77 1006.1
20260504081003 35 253 3.0 7.0 0.00 0.56 0.00 76 1006.1
20260504080524 35 255 2.0 5.0 0.00 0.56 0.00 77 1006.1
20260504050503 39 268 6.0 10.0 0.00 0.59 0.00 70 1005.3
20260504050003 39 267 5.0 10.0 0.00 0.59 0.00 70 1005.3
20260504045503 39 263 6.0 12.0 0.00 0.59 0.00 70 1005.3
20260504045003 39 263 7.0 13.0 0.00 0.59 0.00 70 1005.3
20260504044504 39 266 7.0 13.0 0.00 0.59 0.00 70 1005.1
20260504044003 39 267 6.0 12.0 0.00 0.59 0.00 71 1005.1
20260504043524 39 267 5.0 10.0 0.00 0.59 0.00 71 1005.0
20260504043003 39 264 5.0 11.0 0.00 0.59 0.00 71 1005.0
20260504042503 39 262 5.0 11.0 0.00 0.59 0.00 71 1005.1
20260504042024 39 261 5.0 11.0 0.00 0.59 0.00 71 1005.0
20260504041503 39 264 5.0 12.0 0.00 0.59 0.00 71 1005.0
20260504041003 39 263 5.0 12.0 0.00 0.59 0.00 71 1005.0
20260504040503 39 260 5.0 10.0 0.00 0.59 0.00 71 1004.9
20260504040004 39 264 4.0 10.0 0.00 0.59 0.00 70 1004.9
20260504035524 39 265 4.0 8.0 0.00 0.59 0.59 70 1004.8
20260504035003 39 262 4.0 8.0 0.00 0.59 0.59 70 1004.7
20260504034503 39 262 4.0 8.0 0.00 0.59 0.59 70 1004.9
20260504034003 39 266 4.0 11.0 0.00 0.59 0.59 69 1004.8
20260504033524 40 269 4.0 11.0 0.00 0.59 0.59 68 1004.7
20260504033003 40 266 3.0 7.0 0.00 0.59 0.59 68 1004.6
20260504032524 40 264 4.0 9.0 0.00 0.59 0.59 68 1004.7
20260504032024 40 267 4.0 9.0 0.00 0.59 0.59 68 1004.6
20260504031503 41 273 4.0 9.0 0.00 0.59 0.59 67 1004.7
20260504031003 41 274 4.0 8.0 0.00 0.59 0.59 67 1004.6
20260504030524 41 272 4.0 14.0 0.00 0.59 0.59 67 1004.6
20260504030003 41 270 5.0 14.0 0.00 0.59 0.59 66 1004.5
20260504025503 41 268 5.0 10.0 0.00 0.59 0.59 67 1004.4
20260504025003 41 270 5.0 11.0 0.00 0.59 0.59 67 1004.4
20260504024503 41 275 5.0 12.0 0.00 0.59 0.59 67 1004.4
20260504024003 41 271 6.0 13.0 0.00 0.59 0.59 66 1004.3
20260504023503 42 269 6.0 13.0 0.00 0.59 0.59 66 1004.3
20260504023003 42 270 6.0 12.0 0.00 0.59 0.59 67 1004.3
20260504022503 42 269 5.0 12.0 0.00 0.59 0.59 66 1004.2
20260504022003 42 266 5.0 15.0 0.00 0.59 0.59 67 1004.2
20260504021503 42 266 6.0 15.0 0.00 0.59 0.59 67 1004.2
20260504021003 42 268 5.0 15.0 0.00 0.59 0.59 66 1004.1
20260504020503 42 268 6.0 15.0 0.00 0.59 0.59 65 1004.1
20260504020024 42 270 6.0 12.0 0.00 0.59 0.59 64 1004.0
20260504015503 43 271 7.0 14.0 0.00 0.59 0.59 64 1003.9
20260504015003 43 273 6.0 14.0 0.00 0.59 0.59 64 1003.9
20260504014524 43 278 6.0 16.0 0.00 0.59 0.59 64 1003.8
20260504014003 43 275 6.0 16.0 0.00 0.59 0.59 64 1003.8
20260504013503 43 273 6.0 16.0 0.00 0.59 0.59 63 1003.8
20260504013003 43 272 6.0 14.0 0.00 0.59 0.59 64 1003.8
20260504012524 43 276 6.0 13.0 0.00 0.59 0.59 64 1003.8
20260504012003 44 277 6.0 15.0 0.00 0.59 0.59 64 1003.8
20260504011503 44 277 6.0 16.0 0.00 0.59 0.59 64 1003.7
20260504011003 44 279 6.0 16.0 0.00 0.59 0.59 64 1003.6
20260504010503 44 279 6.0 16.0 0.00 0.59 0.59 64 1003.4
20260504010003 44 279 6.0 16.0 0.00 0.59 0.59 66 1003.4
20260504005503 44 278 6.0 15.0 0.00 0.59 0.59 66 1003.3
20260504005004 44 274 6.0 15.0 0.00 0.59 0.59 68 1003.2
20260504004524 45 281 6.0 14.0 0.00 0.59 0.59 68 1003.2
20260504004024 45 284 7.0 14.0 0.00 0.59 0.59 69 1003.0
20260504003503 45 279 7.0 14.0 0.00 0.59 0.59 70 1002.9
20260504003024 45 280 7.0 14.0 0.00 0.59 0.59 72 1002.7
20260504002503 45 283 7.0 14.0 0.00 0.59 0.59 75 1002.7
20260504002003 44 290 6.0 14.0 0.00 0.59 0.59 80 1002.7
20260504001503 44 291 5.0 14.0 0.00 0.59 0.59 84 1002.6
20260504001024 44 286 3.0 14.0 0.00 0.59 0.59 86 1002.5
20260504000503 45 285 1.0 4.0 0.00 0.59 0.59 86 1002.6
20260504000003 45 275 1.0 3.0 0.00 0.59 0.59 86 1002.5
20260503235503 45 275 1.0 4.0 0.00 0.59 0.59 85 1002.4
20260503235024 45 278 2.0 4.0 0.00 0.59 0.59 85 1002.3
20260503234503 46 293 2.0 5.0 0.00 0.59 0.59 85 1002.2
20260503234003 46 299 3.0 5.0 0.00 0.59 0.59 85 1002.0
20260503233503 46 298 3.0 5.0 0.00 0.59 0.59 85 1002.1
20260503233003 46 306 3.0 6.0 0.00 0.59 0.59 84 1002.1
20260503232503 46 305 3.0 7.0 0.00 0.59 0.59 84 1002.0
20260503232024 46 308 3.0 7.0 0.00 0.59 0.59 84 1002.0
20260503231503 46 330 2.0 4.0 0.00 0.59 0.59 84 1002.0
20260503231003 46 339 2.0 5.0 0.00 0.59 0.59 84 1001.9
20260503230503 46 329 3.0 6.0 0.00 0.59 0.59 84 1001.9
20260503230003 46 327 3.0 6.0 0.00 0.59 0.59 84 1001.8
20260503225503 46 325 4.0 6.0 0.00 0.59 0.59 83 1001.8
20260503225003 46 322 4.0 9.0 0.00 0.59 0.59 83 1001.8
20260503224503 46 322 5.0 9.0 0.00 0.59 0.59 83 1001.7
20260503224003 46 328 5.0 10.0 0.00 0.59 0.59 83 1001.7
20260503223503 46 329 4.0 10.0 0.00 0.59 0.59 83 1001.6
20260503223003 46 326 5.0 10.0 0.00 0.59 0.59 82 1001.7
20260503222503 46 328 6.0 12.0 0.00 0.59 0.59 82 1001.6